[Date Prev][Date Next][Thread Prev][Thread Next] - [Date Index][Thread Index][Author Index]

2 Line ISS Keps 8-1



ISS
1 25544U 98067A   04214.46746528  .00011715  00000-0  98255-4 0  3489
2 25544  51.6331  94.6803 0006157  69.6529 296.6951 15.70439322325438
----
Via the sarex mailing list at AMSAT.ORG courtesy of AMSAT-NA.
To unsubscribe, send "unsubscribe sarex" to Majordomo@amsat.org



AMSAT Top AMSAT Home